Simultaneous Nadir Overpasses (SNOs) Predictions

Prediction of SNOs between AQUA and METOP-A Satellite Orbit:

Table of predicted SNOs for the next 14.0 days since TLE Epoch: 12/23/2011
Index Date Time (AQUA) AQUA Lat,Lon METOP-A Lat,Lon Distance(km) Time Diff (sec)
1 12/24/2011 05:55:29 73.28, 86.13 73.27, 84.49 52.75 69
2 12/24/2011 06:45:03 -73.72,-107.15 -73.74,-107.09 3.17 11
3 12/24/2011 07:34:32 73.79, 60.33 73.80, 60.39 2.72 59
4 12/24/2011 08:24:53 -76.56,-139.65 -76.48,-124.27 397.76 23
5 12/27/2011 01:29:56 73.17, 152.74 73.13, 150.56 70.39 67
6 12/27/2011 02:19:32 -73.70, -40.74 -73.70, -40.79 1.59 13
7 12/27/2011 03:09:01 73.77, 126.74 73.76, 126.69 1.92 57
8 12/27/2011 03:59:18 -76.34, -72.54 -76.26, -58.66 364.78 29
9 12/29/2011 21:04:26 72.73,-140.05 72.68,-144.00 130.81 61
10 12/29/2011 21:54:11 -73.73, 25.54 -73.71, 25.63 3.47 25
11 12/29/2011 22:43:39 73.75,-166.87 73.77,-166.90 2.71 46
12 12/29/2011 23:33:44 -75.72, -4.27 -75.68, 5.73 274.43 43
13 01/01/2012 16:38:56 71.85, -72.13 71.81, -79.30 248.73 47
14 01/01/2012 17:28:57 -73.70, 91.91 -73.68, 91.94 3.07 43
15 01/01/2012 18:18:25 73.72,-100.49 73.73,-100.60 3.61 28
16 01/01/2012 19:08:13 -74.84, 64.49 -74.84, 69.59 148.24 59
17 01/04/2012 13:03:50 -73.67, 158.26 -73.64, 158.24 3.45 69
18 01/04/2012 13:53:19 73.74, -34.26 73.74, -34.19 2.09 0




NCC Satellite Simultaneous Nadir Overpasses (SNOs) Prediction Service
